This is the latest recevied weather packets stored in our database for station/object K4PAD. If no packets are shown the sender has not sent any weather packets the latest 10 day(s).
| Time | Temp. | Humidity | Pressure | Rain* | Wind** | Luminosity | Snow |
|---|---|---|---|---|---|---|---|
| 1787769652 | 33.33° C | 52% | 1016.8 hPa | 0 mm | - | 993 W/m² | - |
| 1787769350 | 33.89° C | 50% | 1016.8 hPa | 0 mm | - | 985 W/m² | - |
| 1787769046 | 33.33° C | 51% | 1017 hPa | 0 mm | - | 989 W/m² | - |
| 1787768741 | 33.33° C | 52% | 1016.9 hPa | 0 mm | - | 1009 W/m² | - |
| 1787768437 | 33.33° C | 51% | 1017.2 hPa | 0 mm | - | 1041 W/m² | - |
| 1787768133 | 32.78° C | 52% | 1017 hPa | 0 mm | - | 1033 W/m² | - |
| 1787767828 | 32.78° C | 55% | 1017.1 hPa | 0 mm | - | 1054 W/m² | - |
| 1787767524 | 33.33° C | 54% | 1017.1 hPa | 0 mm | - | 1019 W/m² | - |
| 1787767222 | 33.33° C | 53% | 1017.2 hPa | 0 mm | - | 1021 W/m² | - |
| 1787766915 | 32.78° C | 56% | 1017.2 hPa | 0 mm | - | 1077 W/m² | - |
| 1787766609 | 32.78° C | 55% | 1017.3 hPa | 0 mm | - | 1064 W/m² | - |
| 1787766308 | 32.78° C | 55% | 1017.7 hPa | 0 mm | - | 1020 W/m² | - |
| 1787766003 | 32.78° C | 53% | 1017.7 hPa | 0 mm | - | 1044 W/m² | - |
| 1787765700 | 32.78° C | 54% | 1017.6 hPa | 0 mm | - | 1036 W/m² | - |
| 1787765395 | 32.78° C | 53% | 1017.8 hPa | 0 mm | - | 1011 W/m² | - |
| 1787765095 | 32.78° C | 57% | 1017.9 hPa | 0 mm | - | 1012 W/m² | - |
| 1787764795 | 32.78° C | 54% | 1018 hPa | 0 mm | - | 1007 W/m² | - |
| 1787764491 | 32.22° C | 51% | 1018.1 hPa | 0 mm | - | 1013 W/m² | - |
| 1787764186 | 32.22° C | 50% | 1018.3 hPa | 0 mm | - | 993 W/m² | - |
| 1787763881 | 32.22° C | 54% | 1018.3 hPa | 0 mm | - | 937 W/m² | - |
| 1787763576 | 32.22° C | 58% | 1018.5 hPa | 0 mm | - | 950 W/m² | - |
| 1787763272 | 32.22° C | 53% | 1018.3 hPa | 0 mm | - | 971 W/m² | - |
| 1787762972 | 31.67° C | 56% | 1018.7 hPa | 0 mm | - | 960 W/m² | - |
| 1787762672 | 31.67° C | 57% | 1018.6 hPa | 0 mm | - | 983 W/m² | - |
| 1787762370 | 31.67° C | 56% | 1018.7 hPa | 0 mm | - | 1031 W/m² | - |
* Rain latest hour (hover to see other rain measurements)
** Current wind speed in m/s (hover to see current wind gust speed)